Terug naar catalogus

NUSAT-41

C PAYNE-G

ActiefWetenschapSSO
NORAD 56944·PAYLOAD·🇦🇷 Argentina

Gelanceerd Jun 12, 2023 vanaf Vandenberg Space Force Base

Loading…

Volgende Passages (komende 24 uur)

TLE

VersSource: Space-Track

Epoch: Sep 14, 2026, 14:11 UTC

1 56944U 23084N   26257.59152986  .00007477  00000-0  25727-3 0  9993
2 56944  97.5644  35.8183 0007580  14.0855 346.0595 15.30341425181455

Volg NUSAT-41 in realtime met AllMySat

Download on the App Store